Regional Weather Roundup
Issued by NWS

Home | Current Version | Previous Version | Graphics & Text | Print | Product List | Glossary Off
Versions: 1 2 3 4 5 6 7 8 9 10 11 12 13 14 15 16 17 18 19 20 21 22 23 24 25 26 27 28 29 30 31 32 33 34 35 36 37 38 39 40 41 42 43 44 45 46 47 48 49 50

000
ASUS43 KMPX 192210
RWRMN
WEATHER ROUNDUP FOR MINNESOTA
NATIONAL WEATHER SERVICE TWIN CITIES/CHANHASSEN MN
400 PM CST FRI JAN 19 2018


NOTE: "FAIR" INDICATES FEW OR NO CLOUDS BELOW 12,000 FEET WITH NO
SIGNIFICANT WEATHER AND/OR OBSTRUCTIONS TO VISIBILITY. N/A MEANS
CURRENT SKY AND/OR WEATHER CONDITIONS ARE NOT AVAILABLE.

MNZ060>063-068>070-192300-
   Twin Cities Metro

CITY           SKY/WX    TMP DP  RH WIND       PRES   REMARKS
TWIN CITIES    FAIR      43  32  65 SW9       29.50R
ST PAUL        FAIR      42  30  62 SW8       29.51R
CRYSTAL        FAIR      42  29  59 SW7       29.49R
BLAINE         PTCLDY    45  30  57 W8        29.49R
LAKEVILLE      FAIR      39  30  70 CALM      29.52R
EDEN PRAIRIE   FAIR      43  32  65 SW8       29.50R
SOUTH ST PAUL  FAIR      42  30  62 SW7       29.50S
LAKE ELMO      FAIR      41  30  65 SW8       29.51R
$$
MNZ001>005-007-008-013>017-022>024-027-028-192300-
   Northwest Minnesota

CITY           SKY/WX    TMP DP  RH WIND       PRES   REMARKS
BEMIDJI        FAIR      39  30  70 W13       29.46R
HALLOCK        FAIR      36  32  87 W7        29.49R
ROSEAU         FAIR      37  32  81 W10       29.45R
WARROAD        FAIR      39  34  81 W10G16    29.43R
THIEF RVR FALL FAIR      38  31  76 W13       29.50R
CROOKSTON      FAIR      36  32  87 W12       29.53R
FOSSTON        FAIR      37  28  70 W9        29.51R
DETROIT LAKES  FAIR      37  32  81 W13       29.53R
MOORHEAD       FAIR      37  30  75 W9        29.54S
PARK RAPIDS    FAIR      40  30  67 W9        29.47R
MAHNOMEN       FAIR      36  31  82 W7        29.52R
$$
MNZ006-009>011-018-025>026-192300-
   North Central Minnesota

CITY           SKY/WX    TMP DP  RH WIND       PRES   REMARKS
BAUDETTE       FAIR      39  31  72 W15G24    29.40R
FLAG ISLAND    CLOUDY    37  30  75 W20G25    29.39R
INTL FALLS     FAIR      43  30  60 W20       29.36R
WASKISH        FAIR      37  32  81 SW8       29.44R
BIG FORK       FAIR      45  28  53 W6        29.40R
LONGVILLE      FAIR      48  27  43 W7        29.44R
GRAND RAPIDS   FAIR      45  28  51 W5        29.42S
CRANE LAKE     FAIR      39  30  70 CALM      29.36S
ORR            FAIR      43  27  52 W9        29.34R
COOK           MOCLDY    41  30  65 W9        29.37R
WALKER         FAIR      44  28  54 W12G22    29.46R
$$
MNZ012-019>021-037-192300-
   Northeast Minnesota

CITY           SKY/WX    TMP DP  RH WIND       PRES   REMARKS
DULUTH         FAIR      38  29  70 W10       29.40R
ELY            FAIR      37  30  75 SW5       29.34F
HIBBING        MOCLDY    39  29  67 SW5       29.38F
EVELETH        FAIR      37  27  67 SW6       29.39S
DULUTH HARBOR  FAIR      39  30  70 SW12      29.43R
TWO HARBORS    FAIR      45  30  57 W6        29.37S
SILVER BAY     FAIR      43  30  61 W5        29.35R
GRAND MARAIS     N/A     37  34  89 SW13      29.34S
G MARAIS ARPRT MOCLDY    37  27  65 SW3       29.32F
$$
MNZ029>031-032-039>041-046>048-054>057-064-192300-
   West Central Minnesota

CITY           SKY/WX    TMP DP  RH WIND       PRES   REMARKS
FERGUS FALLS   FAIR      36  30  80 NW7       29.54R
WHEATON        CLOUDY    43  30  61 NW8       29.59R
MORRIS         CLOUDY    43  32  65 NW12G20   29.55R
ALEXANDRIA     FAIR      41  29  62 NW13      29.53R
ELBOW LAKE     FAIR      37  32  79 NW9       29.55R
WADENA         FAIR      39  28  65 W8        29.50R
GLENWOOD       FAIR      43  32  65 NW14      29.52R
APPLETON       PTCLDY    48  32  53 NW5       29.55R
BENSON         PTCLDY    45  34  65 N6        29.56R
ORTONVILLE     CLOUDY    46  30  53 N9        29.57R
MADISON        PTCLDY    48  36  61 NW6       29.55R
WILLMAR        FAIR      45  34  65 NW13      29.56R
$$
MNZ033>034-036-042>043-049>051-058-059-192300-
   Central Minnesota

CITY           SKY/WX    TMP DP  RH WIND       PRES   REMARKS
ST CLOUD       FAIR      43  31  62 W5        29.47R
SAUK CENTRE      N/A     43  31  63 NW9       29.51R
PAYNESVILLE    FAIR      46  33  60 NW8       29.52R
AITKIN         FAIR      43  27  52 SW3       29.44R
PINE RIVER     FAIR      41  27  56 CALM      29.50R
BRAINERD       FAIR      46  26  45 W6        29.47R
STAPLES        FAIR      37  28  70 W8        29.50R
LONG PRAIRIE   FAIR      41  30  65 W6        29.50R
LITTLE FALLS   FAIR      43  23  45 W5        29.49R
LITCHFIELD     FAIR      46  34  61 W3        29.52R
BUFFALO        FAIR      43  31  64 SW3       29.52R
MAPLE LAKE     FAIR      44  33  65 MISG      29.51R
HUTCHINSON     FAIR      46  35  67 W8        29.53R
$$
MNZ037-044-045-052-053-192300-
   East Central Minnesota

CITY           SKY/WX    TMP DP  RH WIND       PRES   REMARKS
PRINCETON      FAIR      45  30  57 SW3       29.49R
MORA           FAIR      37  28  70 SW6       29.48S
CAMBRIDGE      FAIR      43  30  61 S5        29.49R
RUSH CITY      FAIR      42  28  58 SW6       29.48R
MOOSE LAKE     FAIR      39  28  65 SW6       29.44R
HINCKLEY       FAIR      39  30  70 S5        29.46S
CLOQUET        FAIR      39  27  60 SW6       29.42S
MCGREGOR       FAIR      41  30  65 SW5       29.45R
$$
MNZ071>073-080-081-089-090-097-098-192300-
   Southwest Minnesota

CITY           SKY/WX    TMP DP  RH WIND       PRES   REMARKS
MONTEVIDEO     CLEAR     46  34  61 NW5       29.55R
GRANITE FALLS  CLEAR     47  36  63 W8        29.57R
CANBY          CLOUDY    50  31  47 W9        29.57R
MARSHALL       CLOUDY    46  33  60 NW7       29.56R
REDWOOD FALLS  CLOUDY    43  34  70 W8        29.53R
OLIVIA         CLOUDY    45  32  61 NW10      29.53R
PIPESTONE      CLOUDY    41  34  75 NW7       29.57R
WINDOM         CLOUDY    43  25  49 W9        29.55R
WORTHINGTON    CLOUDY    44  34  67 W13       29.57R
JACKSON        CLOUDY    46  34  61 W10       29.55R
TRACY          CLOUDY    45  35  67 NW10      29.56R
SLAYTON        CLOUDY    41  34  76 W7        29.57R
$$
MNZ065>067-074>077-082>085-091>093-192300-
   South Central Minnesota

CITY           SKY/WX    TMP DP  RH WIND       PRES   REMARKS
MANKATO        FAIR      42  34  73 SW7       29.54R
NEW ULM        CLOUDY    45  34  65 W7        29.54R
ST JAMES       CLOUDY    45  34  65 W10       29.56R
FAIRMONT       CLOUDY    47  35  63 W9        29.55R
FARIBAULT      FAIR      39  32  75 SW7       29.54R
OWATONNA       FAIR      37  32  81 SW9       29.53R
WASECA         FAIR      37  32  81 SW8       29.55R
ALBERT LEA     FAIR      41  28  60 SW10G17   29.53S
$$
MNZ078>079-086>088-094>096-192300-
   Southeast Minnesota

CITY           SKY/WX    TMP DP  RH WIND       PRES   REMARKS
ROCHESTER      FAIR      38  31  76 SW18      29.53R
RED WING       FAIR      41  27  56 W8        29.52R
STANTON        FAIR      40  31  71 SW8       29.52R
DODGE CENTER   FAIR      37  30  75 SW15      29.52S
WINONA         FAIR      41  28  60 SW6       29.53R
PRESTON        FAIR      38  29  70 SW14G22   29.54R
$$
ABBREVIATIONS USED IN REMARKS
   TC - TEMPERATURES IN CELSIUS
  WCI - WIND CHILL INDEX
   HX - HEAT INDEX
  VSB - VISIBILITY
$$




USA.gov is the U.S. government's official web portal to all federal, state and local government web resources and services.